THOR ABLESTAR DEB, 119

Orbit data source: Space-Track

THOR ABLESTAR DEB, 119 is space debris in LEO originally from a launch on Thu, 29 Jun 1961 UTC launched from the Air Force Eastern Test Range (AFETR). Debris objects in space refer to the collection of defunct objects orbiting the Earth. Examples of debris include non-operational satellites, rocket bodies, and fragments generated from explosions, collisions, or faulty payload assembly.

Loading next visibility...
Identifier
119, 1961-015D
Orbit
LEO
Country
Flag of USUS
Related business
Manufacturer
Unknown
Mission
Spacecraft
Bus & Motor
Unknown
Mass
Unknown
Launch date (UTC)
1961-06-29 (64 years ago)
Launch vehicle
Unknown
Launch site
Air Force Eastern Test Range (AFETR)
Object type
Payload
Rocket body
Debris
Shape & HBR
Unknown shape, 0.2 m
Radar Cross Section
Medium (>0.1 m² and <1 m²)

Expand to show TLE details & history
Last TLE update: 1 day ago

TLE from 1 day ago
0 THOR ABLESTAR DEB
1 00119U 61015D   25287.45852927  .00001048  00000-0  44533-3 0  9995
2 00119  66.7264 307.6922 0093199  77.5478 283.6027 14.26823286323257
Epoch: 2025-10-14T11:00Z
TLE epoch observation values (Epoch: 2025-10-14T11:00:16.928Z)
Latitude
-0.00012°
Longitude
119.37495°
Altitude
789.325 km
Speed
7.467 km/s
True Right ascension
20h 30m 46s
True Declination
0° 00' 00"
Sunlit
Object was in daylight at epoch
Visualization orbit readout
Latitude
Unknown
Longitude
Unknown
Altitude
Unknown
Speed
Unknown
Apparent Right ascension
Unknown
Apparent Declination
Unknown
Sunlit
N/A
Visualization observer readout
Local Sidereal Time
05:37:51
Azimuth
Unknown
Elevation
Unknown
Doppler factor
Unknown
Orbital elements
Apogee altitude
867.65 km
Perigee altitude
733.837 km
Semi-major axis
7,178.88 km
Eccentricity
0.00932
Inclination
66.7264°
RAAN
307.6922°
Arg. of periapsis
77.5478°
True anomaly
282.56188°
Mean anomaly
283.6027°
Eccentric anomaly
283.08257°
Mean motion
3.56827 °/min
Orbital period
100.89 mins
BSTAR
0.00044533

Documentation

Showing up to 5 results
|